This demonstration page uses our WeatherBlox Daily Observations layout. Learn more.

Hourly Observations for October 11, 2019

Temp ( °F °C ) Dew Point ( °F °C ) Humidity (%) Winds ( mph kmh ) Pressure ( in mb ) Visibility ( mi km ) Precip ( " mm )
12:15 am 00:15 Cloudy 32 -0.2 24 -4.3 74 74 NNW 16 26 30.3 1026 10 16.09344 0 0
12:35 am 00:35 Cloudy 32 0 24 -4.5 72 72 NW 15 24 30.27 1025 10 16.09344 0 0
12:55 am 00:55 Cloudy 32 0 23 -4.8 70 70 NNW 14 22 30.3 1026 10 16.09344 0 0
1:15 am 01:15 Cloudy 32 -0.2 24 -4.6 73 73 NW 13 20 30.3 1026 10 16.09344 0 0
1:35 am 01:35 Cloudy 31 -0.5 24 -4.6 74 74 NW 14 22 30.3 1026 10 16.09344 0 0
1:55 am 01:55 Cloudy 31 -0.5 24 -4.6 74 74 NW 14 22 30.27 1025 10 16.09344 0 0
2:15 am 02:15 Cloudy 31 -0.5 23 -5 72 72 NW 13 20 30.3 1026 10 16.09344 0 0
2:35 am 02:35 Cloudy 31 -0.7 23 -5.1 72 72 NW 16 26 30.3 1026 10 16.09344 0 0
2:55 am 02:55 Cloudy 30 -1.3 23 -5.1 76 76 WNW 13 20 30.3 1026 10 16.09344 0 0
3:15 am 03:15 Mostly Cloudy 28 -2 23 -5 80 80 WNW 10 17 30.33 1027 10 16.09344 0 0
3:35 am 03:35 Partly Cloudy 28 -2.2 23 -5.1 81 81 WNW 14 22 30.33 1027 10 16.09344 0 0
3:55 am 03:55 Partly Cloudy 28 -2.5 23 -5.2 82 82 WNW 12 19 30.33 1027 10 16.09344 0 0
4:15 am 04:15 Clear 27 -2.7 22 -5.3 83 83 NW 14 22 30.33 1027 10 16.09344 0 0
4:35 am 04:35 Clear 27 -3 22 -5.5 83 83 WNW 9 15 30.33 1027 10 16.09344 0 0
4:55 am 04:55 Clear 26 -3.1 22 -5.6 83 83 NW 12 19 30.33 1027 10 16.09344 0 0
5:15 am 05:15 Clear 26 -3.2 22 -5.6 84 84 WNW 12 19 30.33 1027 10 16.09344 0 0
5:35 am 05:35 Clear 26 -3.2 22 -5.6 84 84 NW 12 19 30.33 1027 10 16.09344 0 0
5:55 am 05:55 Clear 26 -3.2 22 -5.7 83 83 WNW 10 17 30.33 1027 10 16.09344 0 0
6:15 am 06:15 Clear 26 -3.5 22 -5.7 85 85 WNW 12 19 30.33 1027 10 16.09344 0 0
6:35 am 06:35 Clear 27 -3 22 -5.7 82 82 NW 12 19 30.36 1028 10 16.09344 0 0
6:55 am 06:55 Clear 26 -3.1 22 -5.8 82 82 WNW 9 15 30.36 1028 10 16.09344 0 0
7:15 am 07:15 Clear 26 -3.1 21 -6 81 81 W 6 9 30.36 1028 10 16.09344 0 0
7:35 am 07:35 Clear 25 -3.8 21 -6 85 85 W 6 9 30.36 1028 10 16.09344 0 0
7:55 am 07:55 Sunny 24 -4.5 21 -6.1 89 89 W 6 9 30.39 1029 10 16.09344 0 0
8:15 am 08:15 Sunny 25 -3.8 22 -5.5 88 88 W 8 13 30.36 1028 10 16.09344 0 0
8:35 am 08:35 Sunny 26 -3.5 22 -5.5 86 86 W 10 17 30.36 1028 10 16.09344 0 0
8:55 am 08:55 Sunny 27 -2.9 23 -5 86 86 W 12 19 30.36 1028 10 16.09344 0 0
9:15 am 09:15 Sunny 28 -2 23 -5.1 80 80 WNW 13 20 30.36 1028 10 16.09344 0 0
9:35 am 09:35 Sunny 30 -1.1 21 -5.9 70 70 WNW 13 20 30.36 1028 10 16.09344 0 0
9:55 am 09:55 Sunny 31 -0.5 21 -6 67 67 W 10 17 30.36 1028 10 16.09344 0 0
10:15 am 10:15 Sunny 32 -0.1 21 -6 65 65 WNW 13 20 30.36 1028 10 16.09344 0 0
10:35 am 10:35 Sunny 32 0 21 -6.1 64 64 WNW 16 26 30.36 1028 10 16.09344 0 0
10:55 am 10:55 Sunny 33 0.6 21 -6 62 62 NW 18 30 30.36 1028 10 16.09344 0 0
11:15 am 11:15 Partly Cloudy 34 1 21 -6.1 59 59 WNW 15 24 30.33 1027 10 16.09344 0 0
11:35 am 11:35 Partly Cloudy 35 1.4 22 -5.8 59 59 NW 16 26 30.33 1027 10 16.09344 0 0
11:55 am 11:55 Partly Cloudy 35 1.8 21 -6 57 57 WNW 13 20 30.3 1026 10 16.09344 0 0
12:15 pm 12:15 Partly Cloudy 36 2.1 21 -6.3 54 54 NW 14 22 30.3 1026 10 16.09344 0 0
12:55 pm 12:55 Cloudy 36 2.3 20 -6.4 53 53 NW 20 31 30.3 1026 10 16.09344 0 0
1:15 pm 13:15 Mostly Cloudy 37 2.6 21 -5.9 54 54 WNW 12 19 30.3 1026 10 16.09344 0 0
1:35 pm 13:35 Mostly Cloudy 38 3.6 22 -5.7 51 51 W 16 26 30.3 1026 10 16.09344 0 0
1:55 pm 13:55 Mostly Cloudy 40 4.3 21 -5.9 48 48 NW 17 28 30.27 1025 10 16.09344 0 0
2:15 pm 14:15 Partly Cloudy 40 4.5 21 -6 47 47 NW 17 28 30.24 1024 10 16.09344 0 0
2:35 pm 14:35 Partly Cloudy 40 4.7 21 -6 46 46 WNW 17 28 30.24 1024 10 16.09344 0 0
2:55 pm 14:55 Sunny 42 5.3 22 -5.7 45 45 NW 14 22 30.24 1024 10 16.09344 0 0
3:15 pm 15:15 Sunny 42 5.7 20 -6.5 41 41 NW 15 24 30.21 1023 10 16.09344 0 0
3:35 pm 15:35 Sunny 43 6 21 -6.2 42 42 WNW 17 28 30.21 1023 10 16.09344 0 0
3:55 pm 15:55 Sunny 44 6.5 21 -6.1 40 40 NW 17 28 30.21 1023 10 16.09344 0 0
4:15 pm 16:15 Sunny 44 6.9 20 -6.6 38 38 NW 16 26 30.21 1023 10 16.09344 0 0
4:35 pm 16:35 Sunny 44 6.5 19 -7.2 37 37 WNW 14 22 30.21 1023 10 16.09344 0 0
4:55 pm 16:55 Sunny 44 6.6 19 -7 38 38 WNW 16 26 30.21 1023 10 16.09344 0 0
5:15 pm 17:15 Sunny 44 6.5 18 -7.6 36 36 WNW 17 28 30.21 1023 10 16.09344 0 0
5:35 pm 17:35 Sunny 43 6.3 19 -7.5 37 37 WNW 13 20 30.21 1023 10 16.09344 0 0
5:55 pm 17:55 Sunny 43 6.1 18 -7.7 37 37 WNW 15 24 30.18 1022 10 16.09344 0 0
6:15 pm 18:15 Sunny 43 6 18 -7.8 37 37 NW 13 20 30.21 1023 10 16.09344 0 0
6:35 pm 18:35 Sunny 42 5.5 18 -7.8 38 38 NW 13 20 30.18 1022 10 16.09344 0 0
6:55 pm 18:55 Sunny 41 4.8 18 -7.7 40 40 NW 8 13 30.18 1022 10 16.09344 0 0
7:15 pm 19:15 Clear 38 3.3 19 -7.2 46 46 NW 5 7 30.21 1023 10 16.09344 0 0
7:35 pm 19:35 Clear 36 2.3 19 -7 51 51 Calm 30.21 1023 10 16.09344 0 0
7:55 pm 19:55 Clear 35 1.6 19 -7.1 53 53 W 5 7 30.21 1023 10 16.09344 0 0
8:15 pm 20:15 Clear 33 0.8 20 -6.7 58 58 W 6 9 30.21 1023 10 16.09344 0 0
8:35 pm 20:35 Clear 33 0.5 20 -6.6 59 59 W 6 9 30.24 1024 10 16.09344 0 0
8:55 pm 20:55 Clear 33 0.5 20 -6.7 59 59 W 7 11 30.24 1024 10 16.09344 0 0
9:15 pm 21:15 Clear 33 0.5 20 -6.6 59 59 WSW 6 9 30.24 1024 10 16.09344 0 0
9:35 pm 21:35 Clear 33 0.6 20 -6.7 58 58 W 5 7 30.24 1024 10 16.09344 0 0
9:55 pm 21:55 Clear 32 0.2 20 -6.9 59 59 W 7 11 30.24 1024 10 16.09344 0 0
10:15 pm 22:15 Clear 32 0.1 20 -6.8 60 60 WSW 5 7 30.24 1024 10 16.09344 0 0
10:35 pm 22:35 Clear 32 0 21 -6.3 63 63 SW 6 9 30.24 1024 10 16.09344 0 0
10:55 pm 22:55 Clear 32 0 20 -6.5 62 62 SW 8 13 30.24 1024 10 16.09344 0 0
11:15 pm 23:15 Clear 32 0 20 -6.9 60 60 SW 6 9 30.24 1024 10 16.09344 0 0
11:35 pm 23:35 Clear 32 0 19 -7 60 60 SW 5 7 30.24 1024 10 16.09344 0 0
11:55 pm 23:55 Clear 32 0.1 19 -7.1 59 59 WSW 5 7 30.24 1024 10 16.09344 0 0

Powered by AerisWeather